Theta_e
300 300 301 301 301 301 299 301 299 300 301 301 301 301 301 302 302 302 303 308 308 308 309 308 308 308 308 308 308 309 315 317 319 319 319 319 320 321 321 320 321 323 322 322
296 300 299 300 300 301 301 301 302 302 302 302 302 302 301 303 304 305 305 308 308 308 308 308 308 307 307 307 308 307 308 313 316 318 318 319 319 319 318 317 318 320 320 323
300 299 300 299 300 301 300 299 301 301 301 300 300 301 303 305 305 305 306 306 307 307 308 308 307 307 307 307 307 307 307 307 310 313 316 317 318 318 319 318 319 320 319 320
300 299 306 306 302 301 301 301 300 300 300 299 301 303 304 305 305 304 305 306 307 308 307 307 306 307 307 307 307 306 307 307 307 307 309 310 314 315 317 317 317 317 318 317
300 301 302 305 302 301 301 302 300 301 301 301 301 302 303 305 305 305 305 305 306 307 307 307 306 306 306 306 306 306 306 306 306 307 307 307 308 307 308 312 315 316 315 316
300 303 305 304 300 301 300 300 300 300 300 299 301 300 300 305 304 306 305 304 305 306 307 307 306 305 305 306 306 306 305 305 305 305 306 306 307 307 306 306 306 306 306 306
301 302 303 303 301 303 301 303 303 302 303 301 300 302 305 305 305 304 304 303 304 306 306 306 306 304 304 305 306 305 305 305 304 304 304 304 305 305 305 305 305 304 304 304
300 302 304 302 303 300 302 304 304 304 305 304 304 305 304 304 304 304 305 304 303 304 305 305 306 304 303 302 303 305 305 304 304 303 303 303 303 303 303 303 303 303 302 302
301 302 303 304 304 307 304 303 305 304 305 305 305 304 304 304 304 304 304 304 304 304 304 304 305 303 302 301 302 303 305 304 304 303 302 302 302 302 302 302 301 301 300 300
301 304 303 304 305 306 306 305 305 305 304 304 304 304 305 305 305 304 304 304 304 304 304 304 303 302 301 301 301 301 303 304 304 303 302 302 301 301 300 300 300 300 299 299
302 304 304 304 304 306 307 306 305 307 309 306 304 304 305 305 305 304 304 304 304 304 304 304 303 303 302 301 301 300 301 302 303 303 302 302 301 300 300 300 300 299 299 297
307 308 307 308 308 309 308 307 307 307 307 307 307 305 304 305 305 305 304 304 303 304 303 303 304 304 303 302 301 301 300 301 302 302 302 302 301 301 300 300 300 299 298 296
305 306 306 306 306 306 306 305 305 306 305 305 307 305 305 304 304 304 304 304 303 303 303 303 303 304 304 303 302 301 300 300 301 301 301 301 301 301 300 300 299 298 297 295
306 305 305 305 305 305 305 305 304 305 305 306 305 306 304 305 305 304 304 304 303 302 302 302 302 303 304 304 303 302 301 300 300 300 301 301 300 300 300 298 298 297 295 293
303 303 304 304 304 304 304 304 304 304 305 305 305 305 305 304 304 304 303 303 304 302 301 301 301 302 303 304 303 302 301 300 300 299 300 300 300 299 299 298 297 297 294 292
303 303 303 303 303 304 304 304 304 304 304 304 304 304 304 304 304 303 303 303 302 302 302 301 301 302 303 303 303 302 301 300 300 299 299 299 299 299 298 297 297 296 293 291
301 302 302 302 302 302 303 304 304 304 304 304 304 304 304 303 302 302 301 301 301 301 301 301 301 301 302 302 303 302 301 300 299 298 299 298 298 298 296 295 296 294 291 292
301 301 301 301 302 302 302 302 302 303 303 303 303 303 303 302 301 300 300 300 300 300 300 300 300 301 301 302 302 302 301 300 298 298 298 297 297 297 295 295 294 291 292 291
304 304 302 302 301 300 299 299 299 299 300 301 302 302 301 301 300 299 299 299 299 300 300 300 300 300 301 301 301 301 300 298 298 298 297 296 296 295 294 294 291 292 290 287
302 304 301 301 303 301 300 301 299 298 299 300 300 300 299 299 299 299 298 298 299 299 299 299 299 300 300 300 300 300 299 298 298 297 296 295 294 294 294 291 292 289 287 287
300 299 300 300 301 303 303 304 301 298 297 298 298 298 299 299 299 299 299 299 299 298 299 299 299 299 299 299 299 299 298 298 297 296 295 295 294 294 291 292 288 287 287 285
296 297 297 300 299 303 304 303 302 301 299 298 298 298 298 298 298 298 298 298 298 298 298 298 298 298 299 299 298 298 298 297 296 295 294 294 293 291 291 287 286 286 284 284
295 295 296 299 299 300 302 303 301 299 300 300 299 298 298 299 299 299 299 299 299 298 298 298 298 298 298 298 298 298 297 295 294 295 294 292 291 289 286 286 285 284 283 283
293 295 296 299 300 299 301 303 304 303 299 298 298 298 297 298 298 298 298 297 297 297 297 297 297 297 298 298 297 296 296 295 294 293 290 290 287 286 286 284 283 283 283 283
293 294 296 298 300 300 300 302 304 303 302 299 298 297 297 297 297 297 297 297 297 297 297 296 296 296 296 296 296 295 295 293 291 291 289 286 286 285 284 283 283 283 283 283
293 294 295 296 299 300 300 300 302 302 302 299 298 297 296 297 297 296 297 297 297 295 296 296 296 296 295 295 295 293 291 291 290 287 286 286 284 284 283 283 283 282 282 282
293 294 294 295 295 298 299 299 299 302 302 299 298 296 296 296 296 296 296 296 295 295 295 295 295 295 295 294 292 291 291 289 286 286 285 284 283 283 283 282 282 282 282 282
Wind_Speed
13 19 15 18 16 12 11 10 7 2 8 11 8 9 17 26 28 27 27 22 18 16 14 13 11 11 11 12 13 15 14 16 19 21 24 19 5 8 14 15 17 21 19 23
7 9 9 10 16 19 19 20 21 22 28 24 32 23 20 20 14 16 18 21 19 17 16 14 13 11 10 10 10 11 13 14 13 14 16 18 22 23 23 17 15 8 4 16
6 5 8 7 9 14 6 6 17 11 14 5 6 7 14 17 15 18 20 22 20 18 16 16 14 12 11 9 9 9 9 9 11 13 13 14 14 15 20 24 25 27 22 25
5 7 3 4 3 9 13 7 17 9 16 10 12 17 19 21 26 28 24 22 21 19 17 15 14 12 11 10 9 8 7 6 6 7 10 11 10 12 13 14 15 17 18 16
3 3 9 3 3 6 7 8 13 21 19 18 13 14 27 16 21 21 20 21 21 20 18 16 15 13 11 10 9 6 4 4 3 4 5 6 8 10 13 13 13 13 14 13
2 3 5 3 1 3 2 6 5 16 13 7 6 1 5 7 8 12 13 16 21 20 20 19 17 15 14 12 11 8 4 3 0 2 3 3 5 5 8 9 12 12 12 13
6 5 10 10 4 7 1 5 3 9 17 8 6 11 9 8 11 13 13 13 16 20 21 19 17 18 17 15 14 11 8 5 3 2 3 3 3 5 5 6 7 8 8 10
5 5 10 11 6 6 6 3 7 9 14 19 23 27 25 20 20 19 18 16 18 20 21 20 20 20 19 18 14 14 12 9 7 5 5 5 5 4 5 4 3 2 4 5
12 9 4 18 15 18 19 16 24 22 29 29 29 30 29 27 25 25 22 22 21 23 22 21 22 22 21 17 17 17 16 13 10 9 8 7 6 6 4 2 1 1 1 1
3 8 20 33 38 38 42 39 40 39 33 35 37 33 33 33 33 30 27 24 25 26 27 27 25 24 23 19 18 19 19 17 15 13 11 9 7 6 5 4 4 4 3 2
16 20 26 36 34 38 44 41 37 32 30 31 32 31 32 35 33 31 29 28 25 27 31 29 27 27 23 22 22 22 20 19 19 17 16 14 11 9 7 7 6 5 5 4
18 29 25 37 38 38 39 36 32 37 40 43 42 42 41 38 35 34 32 29 29 25 27 30 29 28 26 25 25 23 23 22 22 21 20 18 15 14 12 11 10 9 9 8
37 48 48 51 47 43 40 42 43 47 44 41 43 42 40 39 37 32 30 29 30 31 30 29 30 28 27 27 27 26 25 23 23 23 22 20 18 16 13 12 12 12 11 10
47 44 45 39 34 33 34 40 42 41 45 46 46 46 45 42 38 38 35 31 28 29 27 26 29 28 25 26 28 28 25 23 23 24 23 21 19 16 13 11 11 11 10 10
45 43 49 50 51 51 49 48 45 43 45 44 41 41 42 40 37 36 36 29 27 27 26 23 26 27 24 25 27 28 27 26 24 24 23 21 20 18 15 13 12 12 11 10
39 35 39 39 38 44 41 41 41 41 43 40 39 37 35 33 31 32 31 29 30 30 27 27 26 24 23 24 26 27 28 25 23 23 25 24 22 20 17 15 14 14 14 12
36 39 40 35 35 34 36 39 39 40 41 39 41 38 33 31 29 28 26 24 25 28 26 23 23 21 21 23 25 26 26 26 24 23 26 24 23 20 17 15 13 14 12 11
27 31 36 38 41 40 39 41 42 36 36 37 33 31 26 24 26 24 21 19 19 21 21 18 17 19 19 21 23 24 24 25 25 24 24 24 23 20 18 15 14 13 12 11
30 34 28 25 24 23 25 28 30 30 29 28 23 22 19 18 18 17 15 15 14 15 14 13 14 16 19 20 21 23 24 24 23 23 21 20 20 18 16 14 14 13 12 11
33 29 34 29 24 20 21 21 22 20 17 17 15 15 13 11 11 12 12 11 9 11 9 8 11 13 15 16 19 21 21 21 21 19 20 19 18 17 14 14 13 12 11 11
32 36 41 40 32 21 20 20 18 17 15 12 11 10 9 7 6 6 5 5 6 7 7 8 8 10 13 16 19 20 20 20 19 20 20 17 17 16 14 13 12 11 11 11
42 40 40 39 27 21 18 17 13 12 16 12 9 7 5 3 3 4 4 4 4 3 3 6 7 10 13 15 17 19 19 19 19 19 18 16 15 14 13 12 11 11 10 10
39 39 36 37 27 18 12 12 15 13 9 10 8 6 4 3 3 4 5 5 3 1 3 5 7 11 13 15 18 19 20 19 17 17 16 15 14 13 12 10 10 9 9 8
39 36 32 29 28 20 15 13 12 16 11 7 5 4 3 2 3 3 3 2 1 2 4 6 9 11 13 16 18 19 15 13 16 16 16 15 14 12 9 9 8 8 7 7
41 34 28 26 27 24 18 17 18 16 15 15 9 6 3 3 3 3 2 2 3 4 7 10 11 12 14 15 16 13 12 14 14 14 14 13 11 9 8 7 7 6 6 6
38 38 33 28 27 26 24 24 23 22 18 13 10 7 5 5 4 2 0 4 7 8 9 9 11 14 14 13 12 12 14 15 14 14 13 11 8 8 7 6 5 4 4 4
41 42 40 37 29 27 26 26 26 22 19 15 11 6 5 5 4 3 4 7 9 8 9 12 13 12 11 12 14 14 13 13 14 12 10 7 7 7 7 6 4 3 3 5
Wind_Direction
252 261 260 257 244 223 209 211 206 291 233 267 244 248 265 278 281 276 264 250 257 263 271 283 297 309 325 343 358 7 13 29 40 40 46 55 7 264 261 265 236 224 229 230
281 258 241 251 242 235 234 240 246 258 277 278 274 266 267 267 267 267 254 240 255 256 264 273 283 295 312 327 342 358 5 20 34 42 47 51 67 68 78 95 122 174 243 220
266 337 309 293 225 196 196 209 220 223 233 261 272 270 259 257 262 259 259 258 249 253 257 267 270 277 290 309 327 334 356 13 29 39 54 57 58 65 73 73 85 96 100 87
281 335 315 248 180 174 202 225 208 248 253 231 239 270 280 264 272 277 263 259 253 253 253 256 258 264 275 289 300 312 328 356 28 39 44 54 55 62 71 79 72 64 71 59
278 274 295 276 185 159 185 277 211 220 250 259 267 289 288 297 269 266 269 263 259 259 259 256 249 251 255 263 274 282 297 328 17 56 64 61 58 62 68 77 89 101 98 103
325 276 267 264 178 175 174 293 203 196 241 245 157 237 259 319 276 265 273 260 246 246 246 250 250 247 246 249 258 266 265 268 327 89 85 94 86 75 80 83 89 96 100 94
225 267 278 261 195 141 264 253 323 214 242 208 191 226 294 291 293 277 277 271 250 242 246 255 253 249 246 244 248 254 251 242 241 185 159 144 122 107 93 82 85 91 93 99
179 209 271 170 110 181 224 268 285 278 287 254 256 260 282 279 279 277 279 271 256 247 249 250 251 251 248 246 243 246 248 238 228 221 194 166 162 155 145 133 115 103 102 100
194 211 263 194 225 253 260 277 283 280 288 285 280 276 278 277 279 283 277 275 266 256 253 248 250 250 247 250 240 240 240 239 231 221 212 201 190 184 189 197 215 238 249 133
265 208 246 260 265 269 276 273 279 292 295 294 285 285 284 279 283 284 277 272 269 258 252 251 247 247 251 246 241 237 236 233 232 229 224 217 211 213 219 210 203 205 224 250
264 271 274 265 263 270 278 277 281 286 298 300 297 291 294 292 287 279 280 275 265 261 257 259 256 252 248 243 240 238 235 233 233 230 227 226 226 228 230 234 236 237 238 239
257 269 269 274 274 281 280 277 284 283 286 291 293 289 292 290 285 281 277 275 267 258 261 261 258 253 249 242 237 238 235 231 229 230 230 230 230 232 237 241 243 243 241 238
254 264 262 268 276 277 279 280 280 284 285 286 291 290 289 289 288 281 275 272 267 263 271 266 261 255 248 242 239 236 234 235 232 229 228 229 230 233 238 241 239 228 224 220
255 264 269 272 275 279 283 282 285 284 285 285 285 288 285 286 286 276 273 273 269 268 266 262 258 254 245 241 238 237 236 234 232 231 230 229 229 233 242 252 247 234 223 221
269 268 267 274 278 280 279 281 282 282 284 283 281 282 287 287 287 283 276 266 272 267 264 259 257 251 242 236 235 235 231 230 230 230 228 228 230 229 234 243 239 230 226 230
293 292 285 276 273 277 280 282 281 281 285 285 284 283 288 291 289 284 279 271 261 261 262 262 259 248 238 236 233 231 231 230 230 226 220 218 224 229 232 238 228 224 220 221
287 288 290 287 283 280 282 287 284 283 287 285 288 290 290 289 282 278 274 270 263 259 261 258 250 247 238 234 233 230 228 226 227 224 218 217 222 229 231 242 231 219 221 228
320 307 296 290 288 289 289 287 286 284 283 289 293 289 287 281 284 285 277 274 268 259 251 247 242 235 236 232 230 226 223 224 225 221 216 218 219 223 233 242 226 223 226 232
353 350 336 321 318 311 305 302 301 299 295 290 285 280 279 281 286 284 280 274 265 261 255 250 242 229 226 228 225 221 219 220 218 217 211 220 221 227 237 230 221 226 236 242
360 340 339 315 312 320 328 332 323 318 313 300 288 278 278 279 275 274 276 278 272 263 258 237 225 225 225 222 215 213 215 216 213 205 210 217 225 234 230 221 227 234 239 261
344 354 347 331 314 319 328 321 333 336 330 317 303 294 288 278 277 282 297 308 276 262 244 231 219 210 207 207 202 203 205 205 203 207 217 221 226 224 219 224 226 236 255 269
328 331 335 337 317 313 325 334 332 334 342 344 349 344 342 353 4 3 10 356 330 299 238 212 203 191 194 193 191 195 197 195 200 211 212 219 219 217 217 218 233 251 260 268
316 320 328 335 324 311 313 331 350 333 321 316 327 333 342 352 20 21 6 358 331 296 178 175 173 179 180 181 187 192 193 201 207 207 208 201 202 207 211 230 245 254 263 278
305 308 320 324 319 297 291 313 313 319 326 308 302 304 294 340 1 9 12 5 80 161 151 157 167 168 169 178 184 192 200 200 199 192 191 193 194 202 219 235 242 252 265 283
303 304 309 311 305 307 287 296 309 293 299 315 306 298 309 330 325 313 21 51 134 142 142 150 155 158 171 177 184 193 190 184 184 188 188 190 195 207 217 226 237 255 278 293
304 299 298 300 298 298 311 294 290 293 294 297 290 305 329 339 322 301 176 149 150 153 163 146 148 160 168 175 184 178 173 176 181 185 188 193 198 202 208 217 228 247 276 301
292 292 292 294 296 288 295 305 276 271 271 278 273 288 305 298 279 233 188 146 141 156 159 153 155 164 175 175 166 167 170 172 180 189 193 192 195 198 202 210 226 257 292 317